Rickenbacker, OH

5:38 PM EST on November 13, 2019 (GMT -0500)
Rickenbacker International

Weather History for KLCK - October, 2019

Change the Weather History Date:

Wednesday, October 23, 2019

  Actual Average Record
Temperature  
Mean Temperature 50 °F -  
Max Temperature 62 °F 61 °F 80 °F (2012)
Min Temperature 37 °F 42 °F 24 °F (1997)
Degree Days  
Heating Degree Days 16    
Moisture  
Dew Point 34 °F    
Average Humidity 59    
Maximum Humidity 89    
Minimum Humidity 30    
Precipitation  
Precipitation 0.00 in - - ()
Sea Level Pressure  
Sea Level Pressure 30.07 in    
Wind  
Wind Speed 8 mph (SW)    
Max Wind Speed 17 mph    
Max Gust Speed 25 mph    
Visibility 10 miles    
Events      
Averages and records for this station are not official NWS values.
T = Trace of Precipitation, MM = Missing Value Source: NWS Daily Summary

Daily Weather History Graph

Daily Weather History Graph

Search for Another Location

Airport or City:

Astronomy

Oct. 23, 2019 Rise Set
Actual Time 7:50 AM EDT 6:41 PM EDT
Civil Twilight 7:22 AM EDT 7:08 PM EDT
Nautical Twilight 6:51 AM EDT 7:40 PM EDT
Astronomical Twilight 6:19 AM EDT 8:11 PM EDT
Moon 2:08 AM EDT (10/23) 4:30 PM EDT (10/23)
Length of Visible Light 11h 46m
Length of Day
10h 51m
Waning Crescent, 27% of the Moon is Illuminated
Oct 23
Waning Crescent
Oct 27
New
Nov 4
First Quarter
Nov 12
Full
Nov 19
Last Quarter

Hourly Weather History & Observations

Time (EDT) Temp. Windchill Dew Point Humidity Pressure Visibility Wind Dir Wind Speed Gust Speed Precip Events Conditions
12:15 AM 45.1 °F 42.0 °F 40.6 °F 84% 29.93 in 10.0 mi SW 5.8 mph - N/A   Mostly Cloudy
12:35 AM 45.3 °F 42.3 °F 41.0 °F 85% 29.93 in 10.0 mi SSW 5.8 mph - N/A   Scattered Clouds
12:55 AM 45.7 °F 42.7 °F 40.6 °F 83% 29.93 in 10.0 mi SSW 5.8 mph - N/A   Scattered Clouds
1:15 AM 45.9 °F 42.9 °F 40.1 °F 80% 29.93 in 10.0 mi SSW 5.8 mph - N/A   Scattered Clouds
1:35 AM 44.2 °F 40.3 °F 38.8 °F 81% 29.93 in 10.0 mi SW 6.9 mph - N/A   Mostly Cloudy
1:55 AM 43.5 °F 40.1 °F 38.7 °F 83% 29.93 in 10.0 mi SW 5.8 mph - N/A   Scattered Clouds
2:15 AM 43.3 °F 39.9 °F 38.5 °F 83% 29.94 in 10.0 mi SW 5.8 mph - N/A   Clear
2:35 AM 43.0 °F 41.3 °F 38.3 °F 84% 29.94 in 10.0 mi SW 3.5 mph - N/A   Clear
2:55 AM 42.8 °F 39.3 °F 37.9 °F 83% 29.95 in 10.0 mi SW 5.8 mph - N/A   Clear
3:15 AM 41.7 °F 38.0 °F 37.4 °F 85% 29.95 in 10.0 mi SW 5.8 mph - N/A   Clear
3:35 AM 40.6 °F 37.5 °F 36.9 °F 86% 29.96 in 10.0 mi SW 4.6 mph - N/A   Clear
3:55 AM 41.2 °F 37.3 °F 37.0 °F 85% 29.96 in 10.0 mi SW 5.8 mph - N/A   Clear
4:15 AM 41.2 °F 37.3 °F 36.9 °F 85% 29.96 in 10.0 mi SW 5.8 mph - N/A   Clear
4:35 AM 41.2 °F 37.3 °F 36.7 °F 84% 29.96 in 10.0 mi SW 5.8 mph - N/A   Clear
4:55 AM 40.5 °F 36.5 °F 36.3 °F 85% 29.97 in 10.0 mi SW 5.8 mph - N/A   Clear
5:15 AM 40.1 °F 36.1 °F 36.1 °F 86% 29.98 in 10.0 mi SW 5.8 mph - N/A   Clear
5:35 AM 39.6 °F 34.0 °F 36.1 °F 88% 29.99 in 10.0 mi SW 8.1 mph - N/A   Clear
5:55 AM 40.3 °F 34.4 °F 36.5 °F 86% 30.01 in 10.0 mi WSW 9.2 mph - N/A   Clear
6:15 AM 41.2 °F 36.0 °F 36.7 °F 84% 30.01 in 10.0 mi WSW 8.1 mph - N/A   Clear
6:35 AM 40.3 °F 34.9 °F 36.0 °F 85% 30.01 in 10.0 mi SW 8.1 mph - N/A   Clear
7:15 AM 38.3 °F 33.9 °F 34.7 °F 87% 30.02 in 10.0 mi SW 5.8 mph - N/A   Clear
7:35 AM 37.8 °F 33.3 °F 34.3 °F 87% 30.03 in 10.0 mi SW 5.8 mph - N/A   Clear
7:55 AM 37.4 °F 32.8 °F 34.2 °F 88% 30.03 in 10.0 mi SW 5.8 mph - N/A   Clear
8:15 AM 37.6 °F 32.3 °F 34.5 °F 89% 30.05 in 10.0 mi SW 6.9 mph - N/A   Clear
8:35 AM 39.2 °F 33.6 °F 35.4 °F 86% 30.05 in 10.0 mi SW 8.1 mph - N/A   Clear
8:55 AM 41.4 °F 35.7 °F 36.3 °F 82% 30.06 in 10.0 mi SW 9.2 mph - N/A   Clear
9:15 AM 43.3 °F 37.7 °F 36.9 °F 78% 30.08 in 10.0 mi WSW 10.4 mph - N/A   Clear
9:35 AM 44.8 °F 39.4 °F 37.0 °F 74% 30.08 in 10.0 mi WSW 10.4 mph - N/A   Clear
9:55 AM 46.4 °F 41.5 °F 37.0 °F 70% 30.10 in 10.0 mi WSW 10.4 mph - N/A   Clear
10:15 AM 48.2 °F - 37.0 °F 65% 30.10 in 10.0 mi WSW 12.7 mph - N/A   Clear
10:35 AM 49.6 °F - 36.5 °F 61% 30.11 in 10.0 mi WSW 12.7 mph - N/A   Clear
10:55 AM 51.3 °F - 35.8 °F 55% 30.11 in 10.0 mi WSW 13.8 mph - N/A   Clear
11:15 AM 53.1 °F - 33.8 °F 48% 30.12 in 10.0 mi WSW 13.8 mph 19.6 mph N/A   Clear
11:35 AM 54.1 °F - 31.5 °F 42% 30.13 in 10.0 mi WSW 17.3 mph 24.2 mph N/A   Clear
11:55 AM 54.9 °F - 29.8 °F 38% 30.13 in 10.0 mi West 15.0 mph 21.9 mph N/A   Clear
12:15 PM 55.9 °F - 30.0 °F 37% 30.13 in 10.0 mi WSW 15.0 mph 23.0 mph N/A   Clear
12:35 PM 56.7 °F - 30.2 °F 37% 30.13 in 10.0 mi WSW 15.0 mph 21.9 mph N/A   Clear
12:55 PM 57.2 °F - 30.4 °F 36% 30.13 in 10.0 mi WSW 12.7 mph 18.4 mph N/A   Clear
1:15 PM 58.1 °F - 30.0 °F 34% 30.12 in 10.0 mi WSW 11.5 mph 18.4 mph N/A   Clear
1:35 PM 59.0 °F - 30.0 °F 33% 30.12 in 10.0 mi WSW 13.8 mph 19.6 mph N/A   Clear
1:55 PM 59.4 °F - 30.0 °F 33% 30.12 in 10.0 mi WSW 10.4 mph 20.7 mph N/A   Clear
2:15 PM 60.1 °F - 30.2 °F 32% 30.12 in 10.0 mi WSW 11.5 mph 25.3 mph N/A   Clear
2:35 PM 61.0 °F - 30.6 °F 32% 30.11 in 10.0 mi West 17.3 mph 25.3 mph N/A   Clear
2:55 PM 61.3 °F - 30.9 °F 32% 30.11 in 10.0 mi WSW 12.7 mph 19.6 mph N/A   Clear
3:15 PM 61.9 °F - 30.9 °F 31% 30.11 in 10.0 mi SW 15.0 mph - N/A   Clear
3:35 PM 61.7 °F - 30.6 °F 31% 30.11 in 10.0 mi WSW 11.5 mph 20.7 mph N/A   Clear
3:55 PM 61.9 °F - 30.6 °F 31% 30.11 in 10.0 mi SW 11.5 mph 18.4 mph N/A   Clear
4:15 PM 62.1 °F - 30.4 °F 30% 30.11 in 10.0 mi SW 13.8 mph 19.6 mph N/A   Clear
4:55 PM 61.9 °F - 30.9 °F 31% 30.11 in 10.0 mi SW 13.8 mph 18.4 mph N/A   Clear
5:15 PM 61.3 °F - 30.7 °F 32% 30.10 in 10.0 mi SW 9.2 mph - N/A   Clear
5:35 PM 61.0 °F - 30.9 °F 32% 30.10 in 10.0 mi SSW 11.5 mph - N/A   Clear
5:55 PM 60.3 °F - 31.1 °F 33% 30.10 in 10.0 mi SSW 11.5 mph - N/A   Clear
6:15 PM 59.2 °F - 31.6 °F 35% 30.10 in 10.0 mi South 9.2 mph - N/A   Clear
6:35 PM 57.6 °F - 32.0 °F 38% 30.11 in 10.0 mi SSW 9.2 mph - N/A   Clear
6:55 PM 56.1 °F - 31.8 °F 40% 30.11 in 10.0 mi South 8.1 mph - N/A   Clear
7:15 PM 55.2 °F - 31.8 °F 41% 30.12 in 10.0 mi South 8.1 mph - N/A   Clear
7:35 PM 54.0 °F - 32.0 °F 43% 30.13 in 10.0 mi South 6.9 mph - N/A   Clear
7:55 PM 52.9 °F - 32.0 °F 45% 30.13 in 10.0 mi South 8.1 mph - N/A   Clear
8:15 PM 52.0 °F - 32.4 °F 47% 30.13 in 10.0 mi South 6.9 mph - N/A   Clear
8:35 PM 51.4 °F - 32.5 °F 49% 30.14 in 10.0 mi South 10.4 mph - N/A   Clear
8:55 PM 52.0 °F - 32.2 °F 47% 30.14 in 10.0 mi South 10.4 mph - N/A   Clear
9:15 PM 51.6 °F - 32.4 °F 48% 30.14 in 10.0 mi South 10.4 mph - N/A   Clear
9:35 PM 50.9 °F - 32.5 °F 49% 30.15 in 10.0 mi South 10.4 mph - N/A   Clear
9:55 PM 50.4 °F - 32.5 °F 50% 30.15 in 10.0 mi South 9.2 mph - N/A   Clear
10:15 PM 50.2 °F - 32.9 °F 52% 30.16 in 10.0 mi South 10.4 mph - N/A   Clear
10:35 PM 50.0 °F - 32.9 °F 52% 30.16 in 10.0 mi South 10.4 mph - N/A   Clear
10:55 PM 49.5 °F - 32.9 °F 53% 30.17 in 10.0 mi South 9.2 mph - N/A   Clear
11:15 PM 48.9 °F - 32.9 °F 54% 30.17 in 10.0 mi South 9.2 mph - N/A   Clear
11:35 PM 48.7 °F - 33.1 °F 55% 30.17 in 10.0 mi South 12.7 mph - N/A   Clear
11:55 PM 48.7 °F - 32.9 °F 54% 30.16 in 10.0 mi South 8.1 mph - N/A   Clear